Погода в Радищево

Россия / Саратовская область     50°27′57″N   48°04′31″E
темп.,
°C
ветер,
м/с
пор.,
м/с
влажн.,
%
обл.,
%
осадки,
мм/ч
давл.,
гПа
погр.,
м
27 января, ср
ср2701:00−2юв5988100 0.0 1026243
04:00−5юв4987100 0.0 1025154
07:00−6юв598868 0.0 1025158
10:00−6юв5118866 0.0 1025246
13:00−4ююв61288100 0.0 1025360
16:00−3юв61289100 0.0 1023398
19:00−3юв61491100 0.0 1023382
22:00−3юв71393100 0.0 1022397
28 января, чт
чт2801:00−5юв61192100 0.0 1021337
04:00−7вюв6119499 0.0 1020304
07:00−7вюв71295100 0.0 1019340
10:00−6вюв71294100 0.1 1019374
13:00−5вюв71194100 0.0 1017428
16:00−4вюв71193100 0.1 1016509
19:00−3вюв71393100 0.0 1015397
22:00−2вюв61391100 0.0 1013405
29 января, пт
пт2901:00−3вюв61394100 0.0 1012372
04:00−2вюв61194100 0.0 1010445
07:00−2вюв51093100 0.0 1009359
10:00−1вюв61095100 0.1 1008457
13:000ююв3497100 0.0 1008320
16:00−2юз349385 0.0 100870
19:00−3юз489694 0.0 1009176
22:00−1юз499197 0.0 1010203
30 января, сб
сб3001:00−2ююз6138534 0.0 1010284
04:00−2ююз5129028 0.0 1010247
07:00−1ю71591100 0.0 1009545
10:00+2ююз10198399 0.0 1008733
13:00+1ююз102096100 0.4 10091019
16:00+2ююз91798100 0.9 1009691
19:00+1ююз71489100 0.0 1010540
22:00+1ююз61286100 0.0 1010349
31 января, вс
вс3101:000ю51087100 0.0 1011262
04:00−1ююв4887100 0.0 1010190
07:00−2ююв4886100 0.0 1010200
10:00−3ююв51086100 0.0 1010264
13:00−1ююв6128699 0.0 1011385
16:000ююв71289100 0.0 1010443
19:00−1ю61293100 0.0 1011352
22:000ю51092100 0.0 1011314